EN

Hourly Weather Altos

Today, 23 January, Saturday

Time Temperature Precipitation Wind Pressure Humidity
00:00 +24°C° 0 mm 0 mps 744 mmHg 85%
01:00 +23°C° 0 mm 0 mps 743 mmHg 86%
02:00 +23°C° 0 mm 0 mps 743 mmHg 88%
03:00 +23°C° 0 mm 0 mps 743 mmHg 89%
04:00 +23°C° 0 mm 0 mps 743 mmHg 90%
05:00 +23°C° 0 mm 0 mps 743 mmHg 90%
06:00 +24°C° 0 mm 1 mps 744 mmHg 91%
07:00 +26°C° 0 mm 1 mps 744 mmHg 86%
08:00 +27°C° 0 mm 1 mps 744 mmHg 80%
09:00 +28°C° 0 mm 1 mps 745 mmHg 75%
10:00 +29°C° 0 mm 1 mps 745 mmHg 69%
11:00 +30°C° 0 mm 1 mps 744 mmHg 64%
12:00 +31°C° 0 mm 1 mps 744 mmHg 58%
13:00 +31°C° 0 mm 1 mps 743 mmHg 59%
14:00 +31°C° 0 mm 1 mps 743 mmHg 60%
15:00 +31°C° 0 mm 1 mps 742 mmHg 61%
16:00 +30°C° 0.1 mm 1 mps 742 mmHg 66%
17:00 +29°C° 0.1 mm 1 mps 742 mmHg 72%
18:00 +28°C° 0.1 mm 1 mps 742 mmHg 77%
19:00 +27°C° 0.6 mm 2 mps 742 mmHg 81%
20:00 +26°C° 0.6 mm 2 mps 743 mmHg 85%
21:00 +25°C° 0.6 mm 3 mps 743 mmHg 89%
22:00 +25°C° 0.7 mm 3 mps 744 mmHg 90%
23:00 +25°C° 0.7 mm 3 mps 744 mmHg 92%

Tomorrow, 24 January, Sunday

Time Temperature Precipitation Wind Pressure Humidity
00:00 +24°C° 0.7 mm 2 mps 744 mmHg 94%
01:00 +24°C° 0.2 mm 2 mps 743 mmHg 93%
02:00 +24°C° 0.2 mm 1 mps 743 mmHg 92%
03:00 +24°C° 0.2 mm 1 mps 742 mmHg 91%
04:00 +24°C° 0 mm 1 mps 743 mmHg 91%
05:00 +24°C° 0 mm 2 mps 743 mmHg 91%
06:00 +24°C° 0 mm 2 mps 743 mmHg 91%
07:00 +25°C° 0 mm 2 mps 743 mmHg 86%
08:00 +26°C° 0 mm 2 mps 744 mmHg 82%
09:00 +28°C° 0 mm 2 mps 744 mmHg 77%
10:00 +29°C° 0.7 mm 2 mps 744 mmHg 74%
11:00 +30°C° 0.7 mm 2 mps 743 mmHg 71%
12:00 +31°C° 0.7 mm 2 mps 743 mmHg 69%
13:00 +31°C° 1.8 mm 2 mps 742 mmHg 71%
14:00 +31°C° 1.8 mm 1 mps 742 mmHg 73%
15:00 +30°C° 1.8 mm 1 mps 741 mmHg 75%
16:00 +29°C° 1 mm 1 mps 741 mmHg 80%
17:00 +28°C° 1 mm 1 mps 741 mmHg 84%
18:00 +27°C° 1 mm 1 mps 741 mmHg 89%
19:00 +26°C° 0.2 mm 1 mps 742 mmHg 90%
20:00 +26°C° 0.2 mm 1 mps 742 mmHg 92%
21:00 +25°C° 0.2 mm 1 mps 743 mmHg 93%
22:00 +25°C° 0.1 mm 1 mps 743 mmHg 94%
23:00 +25°C° 0.1 mm 1 mps 742 mmHg 95%

Day after tomorrow, 25 January, Monday

Time Temperature Precipitation Wind Pressure Humidity
00:00 +25°C° 0.1 mm 1 mps 742 mmHg 95%
01:00 +24°C° 0 mm 1 mps 742 mmHg 96%
02:00 +24°C° 0 mm 1 mps 742 mmHg 97%
03:00 +24°C° 0 mm 1 mps 741 mmHg 98%
04:00 +24°C° 0 mm 1 mps 742 mmHg 98%
05:00 +23°C° 0 mm 1 mps 742 mmHg 98%
06:00 +23°C° 0 mm 1 mps 742 mmHg 98%
07:00 +25°C° 0.1 mm 1 mps 743 mmHg 92%
08:00 +27°C° 0.1 mm 1 mps 743 mmHg 86%
09:00 +28°C° 0.1 mm 1 mps 744 mmHg 81%
10:00 +30°C° 0.2 mm 1 mps 743 mmHg 74%
11:00 +31°C° 0.2 mm 2 mps 743 mmHg 67%
12:00 +32°C° 0.2 mm 2 mps 743 mmHg 61%
13:00 +34°C° 0.2 mm 2 mps 742 mmHg 59%
14:00 +34°C° 0.2 mm 2 mps 741 mmHg 58%
15:00 +34°C° 0.2 mm 2 mps 740 mmHg 57%
16:00 +32°C° 0 mm 1 mps 741 mmHg 62%
17:00 +31°C° 0 mm 1 mps 741 mmHg 66%
18:00 +29°C° 0 mm 1 mps 741 mmHg 71%
19:00 +29°C° 0 mm 1 mps 741 mmHg 73%
20:00 +28°C° 0 mm 1 mps 742 mmHg 76%
21:00 +27°C° 0 mm 1 mps 742 mmHg 79%
22:00 +27°C° 0.5 mm 1 mps 742 mmHg 83%
23:00 +26°C° 0.5 mm 1 mps 742 mmHg 87%

26 January, Tuesday

Time Temperature Precipitation Wind Pressure Humidity
00:00 +26°C° 0.5 mm 2 mps 742 mmHg 91%
01:00 +25°C° 0.1 mm 2 mps 742 mmHg 93%
02:00 +25°C° 0.1 mm 2 mps 741 mmHg 95%
03:00 +24°C° 0.1 mm 1 mps 741 mmHg 97%
04:00 +24°C° 0.1 mm 1 mps 742 mmHg 97%
05:00 +24°C° 0.1 mm 1 mps 742 mmHg 98%
06:00 +24°C° 0.1 mm 1 mps 743 mmHg 98%
07:00 +25°C° 0.2 mm 1 mps 743 mmHg 92%
08:00 +27°C° 0.2 mm 1 mps 744 mmHg 86%
09:00 +28°C° 0.2 mm 2 mps 744 mmHg 81%
10:00 +30°C° 0.1 mm 2 mps 744 mmHg 72%
11:00 +32°C° 0.1 mm 2 mps 743 mmHg 63%
12:00 +35°C° 0.1 mm 2 mps 743 mmHg 54%
13:00 +33°C° 0.1 mm 1 mps 742 mmHg 55%
14:00 +33°C° 0.1 mm 1 mps 742 mmHg 56%
15:00 +33°C° 0.1 mm 1 mps 741 mmHg 56%
16:00 +32°C° 0.1 mm 1 mps 741 mmHg 62%
17:00 +30°C° 0.1 mm 1 mps 741 mmHg 67%
18:00 +27°C° 0.1 mm 0 mps 741 mmHg 72%
19:00 +27°C° 0.1 mm 0 mps 742 mmHg 73%
20:00 +28°C° 0.1 mm 1 mps 742 mmHg 75%
21:00 +28°C° 0.1 mm 1 mps 743 mmHg 77%
22:00 +27°C° 0 mm 1 mps 743 mmHg 80%
23:00 +26°C° 0 mm 1 mps 743 mmHg 83%

27 January, Wednesday

Time Temperature Precipitation Wind Pressure Humidity
00:00 +25°C° 0 mm 1 mps 742 mmHg 87%
01:00 +25°C° 0 mm 1 mps 742 mmHg 89%
02:00 +25°C° 0 mm 1 mps 742 mmHg 92%
03:00 +24°C° 0 mm 1 mps 742 mmHg 95%
04:00 +24°C° 0 mm 1 mps 742 mmHg 95%
05:00 +24°C° 0 mm 1 mps 742 mmHg 96%
06:00 +24°C° 0 mm 1 mps 743 mmHg 97%
07:00 +26°C° 0.1 mm 1 mps 743 mmHg 89%
08:00 +27°C° 0.1 mm 1 mps 744 mmHg 81%
09:00 +29°C° 0.1 mm 1 mps 744 mmHg 73%
10:00 +31°C° 0.1 mm 1 mps 744 mmHg 66%
11:00 +32°C° 0.1 mm 2 mps 743 mmHg 58%
12:00 +35°C° 0.1 mm 2 mps 743 mmHg 51%
13:00 +35°C° 0 mm 2 mps 742 mmHg 49%
14:00 +34°C° 0 mm 1 mps 742 mmHg 48%
15:00 +34°C° 0 mm 1 mps 741 mmHg 47%
16:00 +33°C° 0 mm 1 mps 741 mmHg 52%
17:00 +31°C° 0 mm 1 mps 741 mmHg 58%
18:00 +30°C° 0 mm 1 mps 741 mmHg 63%
19:00 +29°C° 0 mm 1 mps 742 mmHg 68%
20:00 +28°C° 0 mm 1 mps 742 mmHg 72%
21:00 +27°C° 0 mm 1 mps 743 mmHg 77%
22:00 +26°C° 0.7 mm 1 mps 743 mmHg 82%
23:00 +25°C° 0.7 mm 1 mps 743 mmHg 87%

28 January, Thursday

Time Temperature Precipitation Wind Pressure Humidity
00:00 +24°C° 0.7 mm 1 mps 743 mmHg 93%
01:00 +24°C° 0.8 mm 1 mps 742 mmHg 94%
02:00 +24°C° 0.8 mm 1 mps 742 mmHg 95%
03:00 +24°C° 0.8 mm 1 mps 742 mmHg 96%
04:00 +24°C° 0 mm 1 mps 742 mmHg 96%
05:00 +24°C° 0 mm 1 mps 742 mmHg 97%
06:00 +21°C° 0 mm 0 mps 743 mmHg 97%
07:00 +25°C° 0.1 mm 1 mps 743 mmHg 90%
08:00 +27°C° 0.1 mm 1 mps 743 mmHg 84%
09:00 +29°C° 0.1 mm 2 mps 744 mmHg 77%
10:00 +30°C° 0.5 mm 2 mps 744 mmHg 70%
11:00 +32°C° 0.5 mm 1 mps 743 mmHg 64%
12:00 +33°C° 0.5 mm 1 mps 743 mmHg 57%
13:00 +33°C° 0.2 mm 1 mps 742 mmHg 56%
14:00 +33°C° 0.2 mm 1 mps 741 mmHg 56%
15:00 +33°C° 0.2 mm 1 mps 741 mmHg 55%
Show more